Flag Weather past 2 weeks in Colchester, England, United Kingdom

Now
46 °F

Fog.


Feels Like: 46 °F
Forecast: 44 / 48 °F
Wind: No wind

Location: Luton Airport

Current Time: Nov 27, 2014 at 5:41:19 AM

Latest Report: Nov 27, 2014 at 5:20 AM


Visibility: 0 mi

Pressure: 29.62 "Hg

Humidity: 100%

Dew point: 46 °F

Location of ColchesterLocation

Historic Weather in Colchester — Graph

°F

Colchester temperature yesterday

Maximum temperature yesterday: 46 °F (at 10:50 AM)
Minimum temperature yesterday: 43 °F (at 12:20 AM)
Average temperature yesterday: 45 °F

Past Weeks' High & Low Weather Summary

 TemperatureHumidityPressure
High55 °F (Nov 14, 1:50 PM)100% (Nov 12, 4:50 AM)30.33 "Hg (Nov 12, 4:50 AM)
Low32 °F (Nov 25, 4:20 AM)77% (Nov 12, 3:50 PM)29.30 "Hg (Nov 12, 4:20 AM)
Average46 °F97%29.83 "Hg
* Reported Nov 12 4:20 AM — Nov 27 4:20 AM, Colchester, Weather by CustomWeather, © 2014

Note: Actual official high and low records may vary slightly from our data, if they occured in-between our weather recording intervals... More about our weather records

Advertising

Colchester weather history for previous 24 hours

 ConditionsComfort  
Time TempWeatherWind HumidityBarometerVisibility
4:20 AM
Nov 27
46 °FRain. Low clouds.2 mph100%29.62 "Hg1 mi
3:50 AM46 °FFog.2 mph100%29.65 "Hg0 mi
3:20 AM46 °FFog.2 mph100%29.65 "Hg0 mi
2:50 AM46 °FFog.2 mph100%29.65 "Hg1 mi
2:20 AM46 °FFog.2 mph100%29.68 "Hg1 mi
1:50 AM46 °FFog.3 mph100%29.68 "Hg1 mi
1:20 AM46 °FFog.2 mph100%29.68 "Hg1 mi
12:50 AM46 °FFog.3 mph100%29.71 "Hg1 mi
12:20 AM46 °FPassing clouds.3 mph100%29.71 "Hg1 mi
11:50 PM
Nov 26
46 °FDrizzle. Mostly cloudy.3 mph100%29.71 "Hg1 mi
11:20 PM46 °FLight rain. Partly cloudy.3 mph100%29.74 "Hg1 mi
10:50 PM46 °FPassing clouds.2 mph100%29.74 "Hg1 mi
10:20 PM46 °FFog.2 mph100%29.74 "Hg0 mi
9:50 PM46 °FFog.2 mph100%29.74 "Hg0 mi
9:20 PM46 °FFog.2 mph100%29.77 "Hg0 mi
8:50 PM46 °FFog.No wind100%29.77 "Hg0 mi
8:20 PM46 °FFog.No wind100%29.77 "Hg0 mi
7:50 PM46 °FFog.No wind100%29.77 "Hg0 mi
7:20 PM46 °FFog.No wind100%29.77 "Hg0 mi
6:50 PM46 °FFog.No wind100%29.77 "Hg0 mi
6:20 PM46 °FFog.No wind100%29.80 "Hg0 mi
5:50 PM46 °FFog.No wind100%29.80 "Hg0 mi
5:20 PM46 °FFog.No wind100%29.80 "Hg0 mi
4:50 PM46 °FFog.No wind100%29.80 "Hg1 mi
4:20 PM46 °FFog.2 mph100%29.80 "Hg1 mi
3:50 PM46 °FFog.No wind100%29.80 "Hg1 mi
3:20 PM46 °FFog.No wind100%29.80 "Hg1 mi
2:50 PM46 °FFog.No wind100%29.80 "Hg1 mi
2:20 PM46 °FFog.No wind100%29.80 "Hg1 mi
1:50 PM46 °FFog.No wind100%29.83 "Hg1 mi
1:20 PM46 °FFog.No wind100%29.83 "Hg0 mi
12:50 PM46 °FFog.No wind100%29.83 "Hg1 mi
12:20 PM46 °FFog.No wind100%29.83 "Hg1 mi
11:50 AM46 °FFog.2 mph100%29.86 "Hg0 mi
11:20 AM46 °FFog.2 mph100%29.86 "Hg0 mi
10:50 AM46 °FFog.No wind93%29.86 "Hg0 mi
10:20 AM45 °FFog.No wind100%29.86 "Hg1 mi
9:20 AM45 °FFog.5 mph100%29.86 "Hg1 mi
8:50 AM45 °FFog.5 mph100%29.89 "Hg1 mi
8:20 AM45 °FFog.5 mph100%29.89 "Hg1 mi
7:50 AM45 °FFog.3 mph100%29.89 "Hg1 mi
7:20 AM45 °FFog.3 mph100%29.89 "Hg0 mi
6:50 AM45 °FFog.5 mph100%29.89 "Hg0 mi
6:20 AM45 °FFog.2 mph100%29.89 "Hg0 mi
5:50 AM45 °FFog.2 mph100%29.89 "Hg0 mi
5:20 AM43 °FFog.3 mph100%29.89 "Hg0 mi
Weather by CustomWeather, © 2014

See weather overviewHow to use our weather pages